| time (UTC) | temp F | wind direction | speed MPH | gust MPH | rain 1hr in | rain 24hr in | rain mn in | humidity % | barometer mb |
| 20260510210028 | 67 | 214 | 7.0 | 14.0 | 0.00 | 0.00 | 0.00 | 20 | 1026.3 |
| 20260510204530 | 67 | 269 | 3.0 | 8.0 | 0.00 | 0.00 | 0.00 | 22 | 1026.3 |
| 20260510203030 | 67 | 258 | 5.0 | 11.0 | 0.00 | 0.00 | 0.00 | 23 | 1026.4 |
| 20260510201529 | 65 | 280 | 7.0 | 11.0 | 0.00 | 0.00 | 0.00 | 25 | 1026.4 |
| 20260510200100 | 65 | 315 | 6.0 | 13.0 | 0.00 | 0.00 | 0.00 | 25 | 1026.5 |
| 20260510194530 | 65 | 172 | 4.0 | 12.0 | 0.00 | 0.00 | 0.00 | 26 | 1026.5 |
| 20260510193042 | 64 | 223 | 7.0 | 12.0 | 0.00 | 0.00 | 0.00 | 26 | 1026.6 |
| 20260510191530 | 64 | 80 | 2.0 | 13.0 | 0.00 | 0.00 | 0.00 | 25 | 1026.6 |
| 20260510190031 | 64 | 355 | 7.0 | 12.0 | 0.00 | 0.00 | 0.00 | 25 | 1026.7 |
| 20260510184530 | 62 | 259 | 3.0 | 13.0 | 0.00 | 0.00 | 0.00 | 25 | 1026.8 |
| 20260510183042 | 61 | 284 | 3.0 | 14.0 | 0.00 | 0.00 | 0.00 | 27 | 1027.0 |
| 20260510181530 | 62 | 244 | 3.0 | 10.0 | 0.00 | 0.00 | 0.00 | 28 | 1027.0 |
| 20260510180030 | 60 | 320 | 4.0 | 9.0 | 0.00 | 0.00 | 0.00 | 29 | 1027.3 |
| 20260510174532 | 60 | 347 | 1.0 | 8.0 | 0.00 | 0.00 | 0.00 | 30 | 1027.2 |
| 20260510173031 | 59 | 239 | 5.0 | 11.0 | 0.00 | 0.00 | 0.00 | 32 | 1027.4 |
| 20260510171531 | 58 | 350 | 6.0 | 12.0 | 0.00 | 0.00 | 0.00 | 33 | 1027.4 |
| 20260510170032 | 57 | 335 | 5.0 | 13.0 | 0.00 | 0.00 | 0.00 | 34 | 1027.5 |
| 20260510164542 | 57 | 336 | 6.0 | 15.0 | 0.00 | 0.00 | 0.00 | 32 | 1027.4 |
| 20260510163030 | 56 | 329 | 7.0 | 15.0 | 0.00 | 0.00 | 0.00 | 34 | 1027.5 |
| 20260510161530 | 56 | 348 | 7.0 | 14.0 | 0.00 | 0.00 | 0.00 | 35 | 1027.4 |
| 20260510160034 | 55 | 67 | 7.0 | 15.0 | 0.00 | 0.00 | 0.00 | 35 | 1027.5 |
| 20260510154529 | 54 | 323 | 5.0 | 12.0 | 0.00 | 0.00 | 0.00 | 39 | 1027.4 |
| 20260510153037 | 53 | 334 | 6.0 | 12.0 | 0.00 | 0.00 | 0.00 | 40 | 1027.5 |
| 20260510151531 | 52 | 360 | 3.0 | 9.0 | 0.00 | 0.00 | 0.00 | 43 | 1027.7 |
| 20260510150034 | 50 | 238 | 3.0 | 10.0 | 0.00 | 0.00 | 0.00 | 49 | 1027.6 |
| 20260510144532 | 49 | 268 | 2.0 | 9.0 | 0.00 | 0.00 | 0.00 | 50 | 1027.7 |
| 20260510143034 | 49 | 13 | 5.0 | 10.0 | 0.00 | 0.00 | 0.00 | 50 | 1027.5 |
| 20260510141532 | 48 | 325 | 6.0 | 12.0 | 0.00 | 0.00 | 0.00 | 51 | 1027.3 |
| 20260510140031 | 47 | 18 | 6.0 | 11.0 | 0.00 | 0.00 | 0.00 | 53 | 1027.3 |
| 20260510134531 | 46 | 355 | 5.0 | 10.0 | 0.00 | 0.00 | 0.00 | 53 | 1027.3 |
| 20260510133038 | 45 | 13 | 4.0 | 9.0 | 0.00 | 0.00 | 0.00 | 52 | 1027.2 |
| 20260510131531 | 42 | 48 | 2.0 | 6.0 | 0.00 | 0.00 | 0.00 | 54 | 1027.1 |
| 20260510130029 | 39 | 75 | 2.0 | 6.0 | 0.00 | 0.00 | 0.00 | 58 | 1026.7 |
| 20260510124530 | 37 | 88 | 4.0 | 5.0 | 0.00 | 0.00 | 0.00 | 60 | 1026.4 |
| 20260510123035 | 36 | 105 | 1.0 | 6.0 | 0.00 | 0.00 | 0.00 | 61 | 1026.2 |
| 20260510121532 | 36 | 46 | 4.0 | 6.0 | 0.00 | 0.00 | 0.00 | 61 | 1026.2 |
| 20260510120033 | 37 | 74 | 5.0 | 8.0 | 0.00 | 0.00 | 0.00 | 63 | 1026.0 |
| 20260510114534 | 37 | 66 | 5.0 | 11.0 | 0.00 | 0.00 | 0.00 | 63 | 1026.1 |
| 20260510113035 | 36 | 69 | 4.0 | 8.0 | 0.00 | 0.00 | 0.00 | 63 | 1025.9 |
| 20260510111530 | 36 | 66 | 6.0 | 9.0 | 0.00 | 0.00 | 0.00 | 61 | 1025.8 |
| 20260510110030 | 37 | 75 | 5.0 | 9.0 | 0.00 | 0.00 | 0.00 | 59 | 1025.7 |
| 20260510104532 | 39 | 42 | 4.0 | 6.0 | 0.00 | 0.00 | 0.00 | 56 | 1025.4 |
| 20260510103029 | 39 | 355 | 3.0 | 5.0 | 0.00 | 0.00 | 0.00 | 55 | 1025.4 |
| 20260510101531 | 39 | 54 | 1.0 | 9.0 | 0.00 | 0.00 | 0.00 | 55 | 1025.3 |
| 20260510100031 | 39 | 84 | 3.0 | 6.0 | 0.00 | 0.00 | 0.00 | 55 | 1025.3 |
| 20260510094530 | 41 | 49 | 4.0 | 6.0 | 0.00 | 0.00 | 0.00 | 53 | 1025.2 |
| 20260510093032 | 42 | 113 | 4.0 | 7.0 | 0.00 | 0.00 | 0.00 | 52 | 1025.0 |
| 20260510091532 | 41 | 111 | 3.0 | 6.0 | 0.00 | 0.00 | 0.00 | 51 | 1025.0 |
| 20260510090030 | 41 | 51 | 2.0 | 6.0 | 0.00 | 0.00 | 0.00 | 52 | 1024.7 |
| 20260510084533 | 41 | 65 | 5.0 | 9.0 | 0.00 | 0.00 | 0.00 | 54 | 1024.7 |
| 20260510083029 | 42 | 30 | 6.0 | 10.0 | 0.00 | 0.00 | 0.00 | 52 | 1024.5 |
| 20260510081538 | 45 | 15 | 6.0 | 13.0 | 0.00 | 0.00 | 0.00 | 50 | 1024.5 |
| 20260510080031 | 44 | 18 | 7.0 | 12.0 | 0.00 | 0.00 | 0.00 | 51 | 1024.4 |
| 20260510074532 | 42 | 347 | 5.0 | 11.0 | 0.00 | 0.00 | 0.00 | 54 | 1024.4 |
| 20260510073034 | 44 | 5 | 6.0 | 11.0 | 0.00 | 0.00 | 0.00 | 52 | 1024.4 |
| 20260510071532 | 44 | 30 | 8.0 | 14.0 | 0.00 | 0.00 | 0.00 | 51 | 1024.3 |
| 20260510070031 | 45 | 20 | 7.0 | 13.0 | 0.00 | 0.00 | 0.00 | 50 | 1024.2 |
| 20260510064532 | 46 | 19 | 10.0 | 18.0 | 0.00 | 0.00 | 0.00 | 48 | 1023.9 |
| 20260510063038 | 47 | 360 | 11.0 | 20.0 | 0.00 | 0.00 | 0.00 | 46 | 1023.7 |
| 20260510061529 | 48 | 24 | 13.0 | 24.0 | 0.00 | 0.00 | 0.00 | 45 | 1023.5 |
| 20260510060032 | 49 | 30 | 12.0 | 22.0 | 0.00 | 0.00 | 0.00 | 41 | 1023.2 |
| 20260510054532 | 50 | 15 | 15.0 | 22.0 | 0.00 | 0.00 | 0.00 | 35 | 1023.0 |
| 20260510053029 | 50 | 5 | 12.0 | 19.0 | 0.00 | 0.00 | 0.00 | 34 | 1022.7 |
| 20260510051532 | 51 | 24 | 13.0 | 20.0 | 0.00 | 0.00 | 0.00 | 33 | 1022.4 |
| 20260510050030 | 51 | 5 | 12.0 | 18.0 | 0.00 | 0.00 | 0.00 | 33 | 1022.2 |
| 20260510044544 | 50 | 28 | 11.0 | 18.0 | 0.00 | 0.00 | 0.00 | 32 | 1022.1 |
| 20260510043035 | 48 | 26 | 8.0 | 13.0 | 0.00 | 0.00 | 0.00 | 33 | 1022.0 |
| 20260510041531 | 47 | 80 | 5.0 | 10.0 | 0.00 | 0.00 | 0.00 | 30 | 1021.9 |
| 20260510040031 | 47 | 65 | 6.0 | 12.0 | 0.00 | 0.00 | 0.00 | 30 | 1021.5 |
| 20260510034534 | 47 | 84 | 8.0 | 12.0 | 0.00 | 0.00 | 0.00 | 31 | 1021.0 |
| 20260510033031 | 48 | 66 | 7.0 | 10.0 | 0.00 | 0.00 | 0.00 | 31 | 1020.8 |
| 20260510031534 | 49 | 72 | 7.0 | 9.0 | 0.00 | 0.00 | 0.00 | 29 | 1020.6 |
| 20260510030031 | 53 | 66 | 4.0 | 8.0 | 0.00 | 0.00 | 0.00 | 24 | 1020.4 |
| 20260510024531 | 55 | 0 | 0.0 | 2.0 | 0.00 | 0.00 | 0.00 | 19 | 1020.2 |
| 20260510023029 | 56 | 262 | 2.0 | 6.0 | 0.00 | 0.00 | 0.00 | 20 | 1020.0 |
| 20260510021537 | 57 | 284 | 3.0 | 7.0 | 0.00 | 0.00 | 0.00 | 19 | 1019.9 |
| 20260510020033 | 59 | 265 | 3.0 | 8.0 | 0.00 | 0.00 | 0.00 | 20 | 1019.8 |
| 20260510014533 | 60 | 281 | 5.0 | 9.0 | 0.00 | 0.00 | 0.00 | 22 | 1019.8 |
| 20260510013031 | 60 | 300 | 5.0 | 12.0 | 0.00 | 0.00 | 0.00 | 22 | 1019.7 |
| 20260510011530 | 61 | 254 | 5.0 | 16.0 | 0.00 | 0.00 | 0.00 | 22 | 1019.6 |
| 20260510010028 | 62 | 267 | 4.0 | 15.0 | 0.00 | 0.00 | 0.00 | 23 | 1019.4 |
| 20260510004527 | 62 | 292 | 8.0 | 14.0 | 0.00 | 0.00 | 0.00 | 22 | 1019.3 |
| 20260510003032 | 63 | 275 | 9.0 | 13.0 | 0.00 | 0.00 | 0.00 | 23 | 1019.3 |
| 20260510001529 | 63 | 253 | 8.0 | 13.0 | 0.00 | 0.00 | 0.00 | 23 | 1019.3 |
| 20260510000029 | 64 | 245 | 10.0 | 16.0 | 0.00 | 0.00 | 0.00 | 24 | 1019.2 |
| 20260509234535 | 64 | 229 | 6.0 | 12.0 | 0.00 | 0.00 | 0.00 | 25 | 1019.1 |
| 20260509233028 | 65 | 258 | 7.0 | 16.0 | 0.00 | 0.00 | 0.00 | 24 | 1019.3 |
| 20260509231528 | 65 | 228 | 7.0 | 17.0 | 0.00 | 0.00 | 0.00 | 26 | 1019.4 |
| 20260509230030 | 64 | 256 | 9.0 | 15.0 | 0.00 | 0.00 | 0.00 | 25 | 1019.3 |
| 20260509224535 | 64 | 254 | 8.0 | 24.0 | 0.00 | 0.00 | 0.00 | 26 | 1019.4 |
| 20260509223031 | 64 | 261 | 3.0 | 12.0 | 0.00 | 0.00 | 0.00 | 26 | 1019.5 |
| 20260509221532 | 64 | 237 | 9.0 | 17.0 | 0.00 | 0.00 | 0.00 | 25 | 1019.4 |
| 20260509220031 | 65 | 252 | 7.0 | 14.0 | 0.00 | 0.00 | 0.00 | 25 | 1019.6 |
| 20260509214531 | 65 | 273 | 14.0 | 20.0 | 0.00 | 0.00 | 0.00 | 25 | 1019.8 |
| 20260509213030 | 66 | 219 | 9.0 | 18.0 | 0.00 | 0.00 | 0.00 | 26 | 1019.9 |
| 20260509211530 | 66 | 308 | 12.0 | 18.0 | 0.00 | 0.00 | 0.00 | 22 | 1019.9 |